Regional Weather Roundup
Issued by NWS

Home | Current Version | Previous Version | Graphics & Text | Print | Product List | Glossary On
Versions: 1 2 3 4 5 6 7 8 9 10 11 12 13 14 15 16 17 18 19 20 21 22 23 24 25 26 27 28 29 30 31 32 33 34 35 36 37 38 39 40 41 42 43 44 45 46 47 48 49 50
000
ASUS43 KIND 111659
RWRIN

WEATHER ROUNDUP FOR INDIANA
NATIONAL WEATHER SERVICE INDIANAPOLIS IN
100 PM EDT FRI JUL 11 2014

NOTE: "FAIR" INDICATES FEW OR NO CLOUDS BELOW 12,000 FEET WITH NO
SIGNIFICANT WEATHER AND/OR OBSTRUCTIONS TO VISIBILITY.

* - STATION DOES NOT REPORT WEATHER SUCH AS PRECIPITATION OR FOG.

+ - STATION NOT QUALITY CONTROLLED BY THE NATIONAL WEATHER SERVICE.
    USE DATA WITH CAUTION...ESPECIALLY DEWPOINT AND RELATIVE
    HUMIDITY OBSERVATIONS.

INZ001>003-010>013-019-020-111800-
NORTHWEST INDIANA

CITY           SKY/WX    TMP DP  RH WIND       PRES   REMARKS
GARY /AIRPORT/ MOSUNNY   79  50  36 S5        30.20F
KNOX *+        SUNNY     76  53  43 SE3       30.22S
MONTICELLO +   SUNNY     76  57  52 SE3       30.22S
VALPARAISO     SUNNY     76  52  43 S9        30.23S

$$

LMZ046-743>745-111800-
SOUTHERN LAKE MICHIGAN

STATION/POSITION TIME  TEMP WIND        PRES
                       AIR  DIR/SP/G
                 (UTC) (F)  (DEG/KT/KT) (MB)
MICHIGAN CITY    1600   73  180/  3/  5   N/A

$$

INZ004-005-014>016-021>024-111800-
NORTH CENTRAL INDIANA

CITY           SKY/WX    TMP DP  RH WIND       PRES   REMARKS
ELKHART        MOSUNNY   75  52  43 CALM      30.23F
GOSHEN         PTSUNNY   76  57  51 SE7       30.23S
SOUTH BEND     SUNNY     78  55  44 S9        30.23S
WARSAW +       PTSUNNY   77  55  47 CALM      30.23S

$$

INZ006>009-017-018-025>027-111800-
NORTHEAST INDIANA

CITY           SKY/WX    TMP DP  RH WIND       PRES   REMARKS
ANGOLA *+      MOSUNNY   77  59  53 VRB5      30.23F
FORT WAYNE     PTSUNNY   77  54  44 VRB5      30.24F

$$

INZ028-029-035-036-043>045-051>053-111800-
WEST CENTRAL INDIANA

CITY           SKY/WX    TMP DP  RH WIND       PRES   REMARKS
GREENCASTLE +  MOSUNNY   77  55  47 CALM      30.23S
LAFAYETTE      MOSUNNY   79  54  41 SW8       30.22S
TERRE HAUTE    SUNNY     81  56  42 VRB3      30.21F

$$

INZ030>032-037>040-046>048-054>057-064-065-111800-
CENTRAL INDIANA

CITY           SKY/WX    TMP DP  RH WIND       PRES   REMARKS
ANDERSON       MOSUNNY   77  52  41 CALM      30.24F
COLUMBUS       MOSUNNY   79  54  41 MISG      30.23S
INDIANAPOLIS   MOSUNNY   77  55  46 VRB5      30.22S
-EAGLE CREEK   MOSUNNY   78  54  43 NW7       30.22S
KOKOMO *+      SUNNY     79  55  44 CALM      30.23S
MT COMFORT *+  SUNNY     79  57  47 SE6       30.23F
SHELBYVILLE    MOSUNNY   81  58  45 W5        30.22F

$$

INZ033-034-041-042-049-050-058-059-111800-
EAST CENTRAL INDIANA

CITY           SKY/WX    TMP DP  RH WIND       PRES   REMARKS
MUNCIE         SUNNY     79  51  37 VRB5      30.23F

$$

INZ060-061-067>069-081>083-085>088-111800-
SOUTHWEST INDIANA

CITY           SKY/WX    TMP DP  RH WIND       PRES   REMARKS
EVANSVILLE     SUNNY     85  58  39 NE3       30.20S
HUNTINGBURG *+ SUNNY     82  61  47 E5        30.21S

$$

INZ062-063-066-070>080-084-089>092-111800-
SOUTH CENTRAL AND SOUTHEAST INDIANA

CITY           SKY/WX    TMP DP  RH WIND       PRES   REMARKS
BLOOMINGTON    SUNNY     80  54  40 VRB6      30.22F

$$




USA.gov is the U.S. government's official web portal to all federal, state and local government web resources and services.